Location: Campestrin
(46.4667°N, 11.7167°E)
Time: 15:45:25
(UTC+00:00)

Cosmos 1633 - Pass Details

Date: 18 April 2021
Orbit: 461 x 478 km, 82.5° (Epoch: 06 May)

Event Time Altitude Azimuth Distance (km) Brightness Sun altitude
Rises 20:58:52 0° 338° (NNW) 2,538 7.5 -25.1°
Reaches altitude 10° 21:01:15 10° 324° (NW) 1,650 6.3 -25.3°
Maximum altitude 21:04:09 23° 271° (W) 1,041 4.5 -25.6°
Enters shadow 21:04:17 23° 267° (W) 1,042 4.5 -25.7°
